KLM692 EHAM-CYYZ

Flight info

Callsign KLM692
Flight time N/A
Altitude 38000
Route BERGI L602 NALAX L46 GETNO DCT REMSI DCT NIBOG DCT PIKIL/M083F390 NATB JANJO/N0484F400 DCT ALKOB DCT YBC DCT POLTY IMEBA9
Aircraft A332/H-SDE3GHIJ2J3J5M1RVWXY/LB2D1

Departure

Time 2026-05-05 11:45
Airport Amsterdam Airport Schiphol (EHAM)

Arrival

Time N/A
Airport Toronto Pearson International Airport (CYYZ)
Time Latitude Longitude Altitude Speed Heading
2026-05-05 10:46 52.31315 4.76678 3 ft 0 kts 123°
2026-05-05 11:27 52.31316 4.76677 3 ft 2 kts 123°
2026-05-05 11:27 52.31329 4.76643 4 ft 4 kts 122°
2026-05-05 11:27 52.31343 4.76605 5 ft 4 kts 116°
2026-05-05 11:28 52.31352 4.76565 5 ft 4 kts 91°
2026-05-05 11:28 52.31348 4.76537 5 ft 2 kts 34°
2026-05-05 11:28 52.31362 4.76553 5 ft 4 kts 34°
2026-05-05 11:28 52.31373 4.76565 4 ft 1 kts 33°
2026-05-05 11:31 52.31374 4.76566 4 ft 1 kts 32°
2026-05-05 11:32 52.31380 4.76571 3 ft 1 kts 27°
2026-05-05 11:32 52.31400 4.76570 3 ft 5 kts 349°
2026-05-05 11:32 52.31440 4.76509 3 ft 11 kts 307°
2026-05-05 11:32 52.31488 4.76389 3 ft 13 kts 303°
2026-05-05 11:33 52.31533 4.76257 3 ft 13 kts 285°
2026-05-05 11:33 52.31534 4.76106 3 ft 13 kts 267°
2026-05-05 11:33 52.31529 4.75951 3 ft 14 kts 267°
2026-05-05 11:33 52.31524 4.75790 3 ft 15 kts 267°
2026-05-05 11:34 52.31519 4.75621 3 ft 15 kts 266°
2026-05-05 11:34 52.31489 4.75466 3 ft 14 kts 220°
2026-05-05 11:34 52.31423 4.75357 3 ft 14 kts 255°
2026-05-05 11:34 52.31415 4.75200 3 ft 14 kts 266°
2026-05-05 11:35 52.31410 4.75036 3 ft 15 kts 267°
2026-05-05 11:35 52.31406 4.74867 3 ft 15 kts 268°
2026-05-05 11:35 52.31403 4.74695 3 ft 15 kts 267°
2026-05-05 11:35 52.31398 4.74517 3 ft 16 kts 267°
2026-05-05 11:36 52.31395 4.74343 3 ft 13 kts 282°
2026-05-05 11:36 52.31467 4.74288 3 ft 12 kts
2026-05-05 11:36 52.31550 4.74298 3 ft 12 kts
2026-05-05 11:36 52.31633 4.74306 3 ft 12 kts
2026-05-05 11:37 52.31716 4.74315 3 ft 12 kts
2026-05-05 11:37 52.31800 4.74322 3 ft 12 kts
2026-05-05 11:37 52.31885 4.74330 3 ft 12 kts
2026-05-05 11:37 52.31970 4.74336 3 ft 12 kts 359°
2026-05-05 11:38 52.32027 4.74261 3 ft 11 kts 290°
2026-05-05 11:38 52.32035 4.74136 2 ft 11 kts 273°
2026-05-05 11:38 52.32039 4.73999 2 ft 13 kts 272°
2026-05-05 11:38 52.32043 4.73853 3 ft 12 kts 272°
2026-05-05 11:39 52.32047 4.73715 3 ft 13 kts 272°
2026-05-05 11:39 52.32051 4.73568 3 ft 13 kts 273°
2026-05-05 11:39 52.32066 4.73419 3 ft 13 kts 292°
2026-05-05 11:39 52.32126 4.73302 3 ft 14 kts 317°
2026-05-05 11:40 52.32198 4.73198 3 ft 14 kts 320°
2026-05-05 11:40 52.32285 4.73078 3 ft 17 kts 319°
2026-05-05 11:40 52.32377 4.72951 3 ft 17 kts 320°
2026-05-05 11:40 52.32469 4.72823 3 ft 17 kts 319°
2026-05-05 11:41 52.32561 4.72693 3 ft 18 kts 319°
2026-05-05 11:41 52.32655 4.72557 3 ft 18 kts 316°
2026-05-05 11:41 52.32740 4.72409 3 ft 18 kts 311°
2026-05-05 11:41 52.32827 4.72249 3 ft 19 kts 311°
2026-05-05 11:42 52.32914 4.72086 3 ft 19 kts 311°
2026-05-05 11:42 52.33003 4.71921 3 ft 20 kts 311°
2026-05-05 11:42 52.33094 4.71755 3 ft 20 kts 312°
2026-05-05 11:42 52.33144 4.71559 3 ft 19 kts 261°
2026-05-05 11:43 52.33064 4.71396 3 ft 19 kts 221°
2026-05-05 11:43 52.32964 4.71257 3 ft 19 kts 220°
2026-05-05 11:43 52.32868 4.71101 2 ft 19 kts 245°
2026-05-05 11:43 52.32877 4.70911 2 ft 12 kts 315°
2026-05-05 11:44 52.32921 4.70899 1 ft 0 kts
2026-05-05 11:44 52.32938 4.70900 1 ft 15 kts
2026-05-05 11:44 52.33247 4.70930 0 ft 72 kts
2026-05-05 11:44 52.33910 4.70990 3 ft 118 kts
2026-05-05 11:45 52.34871 4.71076 6 ft 157 kts
2026-05-05 11:45 52.35639 4.71130 181 ft 167 kts
2026-05-05 11:45 52.36861 4.71209 803 ft 166 kts
2026-05-05 11:45 52.38018 4.71266 1410 ft 169 kts
2026-05-05 11:46 52.39226 4.71325 1901 ft 175 kts
2026-05-05 11:46 52.40472 4.71419 2315 ft 184 kts
2026-05-05 11:46 52.41788 4.71487 2728 ft 195 kts
2026-05-05 11:46 52.43207 4.71578 2972 ft 217 kts
2026-05-05 11:47 52.44808 4.71713 3140 ft 243 kts
2026-05-05 11:47 52.46560 4.71945 3604 ft 257 kts
2026-05-05 11:47 52.48350 4.72199 4340 ft 260 kts
2026-05-05 11:47 52.50168 4.72480 5082 ft 265 kts
2026-05-05 11:48 52.53914 4.72759 6546 ft 275 kts
2026-05-05 11:48 52.55864 4.72827 7148 ft 285 kts
2026-05-05 11:48 52.57839 4.72793 8036 ft 281 kts 351°
2026-05-05 11:49 52.59672 4.71781 8951 ft 278 kts 327°
2026-05-05 11:49 52.61017 4.69564 9824 ft 274 kts 303°
2026-05-05 11:49 52.62088 4.66914 10389 ft 285 kts 302°
2026-05-05 11:49 52.63198 4.64077 10694 ft 304 kts 302°
2026-05-05 11:50 52.64397 4.61085 10992 ft 322 kts 302°
2026-05-05 11:50 52.65683 4.57945 11275 ft 339 kts 303°
2026-05-05 11:50 52.67046 4.54660 11533 ft 355 kts 303°
2026-05-05 11:50 52.68461 4.51269 12034 ft 362 kts 303°
2026-05-05 11:51 52.69893 4.47848 12700 ft 364 kts 303°
2026-05-05 11:51 52.71343 4.44390 13229 ft 370 kts 303°
2026-05-05 11:51 52.72820 4.40859 13732 ft 376 kts 303°
2026-05-05 11:51 52.74301 4.37293 14294 ft 378 kts 302°
2026-05-05 11:52 52.75711 4.33605 14828 ft 381 kts 300°
2026-05-05 11:52 52.77052 4.29815 15379 ft 383 kts 298°
2026-05-05 11:52 52.78354 4.25976 15980 ft 384 kts 297°
2026-05-05 11:52 52.79648 4.22090 16503 ft 388 kts 297°
2026-05-05 11:53 52.80951 4.18165 17003 ft 392 kts 297°
2026-05-05 11:53 52.82271 4.14199 17481 ft 395 kts 297°
2026-05-05 11:53 52.83605 4.10209 17961 ft 399 kts 297°
2026-05-05 11:53 52.84958 4.06176 18448 ft 402 kts 297°
2026-05-05 11:54 52.86321 4.02121 18879 ft 405 kts 297°
2026-05-05 11:54 52.87695 3.98033 19313 ft 408 kts 297°
2026-05-05 11:54 52.89075 3.93921 19741 ft 410 kts 297°
2026-05-05 11:54 52.90473 3.89751 20183 ft 413 kts 297°
2026-05-05 11:55 52.91860 3.85604 20606 ft 415 kts 297°
2026-05-05 11:55 52.93259 3.81414 21035 ft 417 kts 296°
2026-05-05 11:55 52.94667 3.77188 21446 ft 419 kts 296°
2026-05-05 11:55 52.96096 3.72893 21993 ft 419 kts 296°
2026-05-05 11:56 52.97501 3.68669 22474 ft 419 kts 296°
2026-05-05 11:56 52.98912 3.64412 22857 ft 422 kts 296°
2026-05-05 11:56 53.00332 3.60121 23242 ft 425 kts 296°
2026-05-05 11:56 53.01757 3.55807 23610 ft 428 kts 296°
2026-05-05 11:57 53.03189 3.51462 23931 ft 430 kts 296°
2026-05-05 11:57 53.04627 3.47087 24238 ft 432 kts 296°
2026-05-05 11:57 53.06059 3.42727 24560 ft 434 kts 296°
2026-05-05 11:57 53.07497 3.38337 24890 ft 435 kts 296°
2026-05-05 11:58 53.08915 3.33877 25220 ft 436 kts 292°
2026-05-05 11:58 53.10045 3.29214 25547 ft 435 kts 285°
2026-05-05 11:58 53.10878 3.24368 25846 ft 435 kts 282°
2026-05-05 11:58 53.11609 3.19470 26160 ft 437 kts 281°
2026-05-05 11:59 53.12282 3.14537 26474 ft 438 kts 280°
2026-05-05 11:59 53.12928 3.09577 26778 ft 439 kts 279°
2026-05-05 11:59 53.13566 3.04596 27103 ft 441 kts 279°
2026-05-05 11:59 53.14208 2.99577 27341 ft 444 kts 279°
2026-05-05 12:00 53.14856 2.94533 27602 ft 446 kts 279°
2026-05-05 12:00 53.15511 2.89471 27907 ft 448 kts 279°
2026-05-05 12:00 53.16168 2.84397 28202 ft 449 kts 279°
2026-05-05 12:00 53.16829 2.79297 28487 ft 451 kts 279°
2026-05-05 12:01 53.17494 2.74152 28754 ft 453 kts 279°
2026-05-05 12:01 53.18153 2.69041 29010 ft 454 kts 279°
2026-05-05 12:01 53.18815 2.63882 29287 ft 456 kts 279°
2026-05-05 12:01 53.19477 2.58706 29558 ft 457 kts 279°
2026-05-05 12:02 53.20135 2.53542 29970 ft 456 kts 279°
2026-05-05 12:02 53.20793 2.48359 30230 ft 457 kts 279°
2026-05-05 12:02 53.21448 2.43174 30494 ft 457 kts 279°
2026-05-05 12:02 53.22110 2.37918 30778 ft 457 kts 279°
2026-05-05 12:03 53.22760 2.32734 31049 ft 457 kts 279°
2026-05-05 12:03 53.23408 2.27542 31298 ft 458 kts 280°
2026-05-05 12:03 53.24703 2.17113 31624 ft 463 kts 280°
2026-05-05 12:04 53.25355 2.11854 31946 ft 462 kts 280°
2026-05-05 12:04 53.26000 2.06610 32231 ft 462 kts 280°
2026-05-05 12:04 53.26644 2.01349 32429 ft 463 kts 280°
2026-05-05 12:04 53.27290 1.96051 32519 ft 467 kts 280°
2026-05-05 12:05 53.27936 1.90732 32774 ft 467 kts 280°
2026-05-05 12:05 53.28580 1.85419 33068 ft 466 kts 280°
2026-05-05 12:05 53.29221 1.80103 33330 ft 466 kts 280°
2026-05-05 12:05 53.29859 1.74794 33578 ft 466 kts 280°
2026-05-05 12:06 53.30542 1.69424 33839 ft 466 kts 282°
2026-05-05 12:06 53.31279 1.64145 34063 ft 466 kts 282°
2026-05-05 12:06 53.32037 1.58870 34281 ft 466 kts 283°
2026-05-05 12:06 53.32799 1.53608 34521 ft 465 kts 283°
2026-05-05 12:07 53.33553 1.48414 34690 ft 466 kts 283°
2026-05-05 12:07 53.34311 1.43143 34862 ft 466 kts 282°
2026-05-05 12:07 53.35061 1.37866 35073 ft 466 kts 282°
2026-05-05 12:07 53.35805 1.32597 35306 ft 465 kts 282°
2026-05-05 12:08 53.36542 1.27343 35536 ft 464 kts 282°
2026-05-05 12:08 53.37284 1.22025 35762 ft 463 kts 282°
2026-05-05 12:08 53.38015 1.16774 35968 ft 462 kts 282°
2026-05-05 12:08 53.38741 1.11537 36181 ft 462 kts 282°
2026-05-05 12:09 53.39465 1.06300 36362 ft 461 kts 282°
2026-05-05 12:09 53.40186 1.01069 36547 ft 461 kts 282°
2026-05-05 12:09 53.40904 0.95847 36769 ft 459 kts 282°
2026-05-05 12:09 53.41618 0.90632 36959 ft 459 kts 282°
2026-05-05 12:10 53.42329 0.85421 37117 ft 459 kts 282°
2026-05-05 12:10 53.43040 0.80192 37299 ft 459 kts 282°
2026-05-05 12:10 53.43736 0.75056 37473 ft 458 kts 282°
2026-05-05 12:10 53.44469 0.69623 37668 ft 458 kts 282°
2026-05-05 12:11 53.45170 0.64415 37842 ft 458 kts 282°
2026-05-05 12:11 53.45867 0.59211 37981 ft 458 kts 282°
2026-05-05 12:11 53.47255 0.48798 37996 ft 456 kts 281°
2026-05-05 12:12 53.48630 0.38412 37999 ft 455 kts 281°
2026-05-05 12:12 53.49994 0.28033 37994 ft 455 kts 281°
2026-05-05 12:13 53.51350 0.17639 37996 ft 456 kts 281°
2026-05-05 12:13 53.52479 0.08923 37997 ft 456 kts 281°
2026-05-05 12:14 53.53819 -0.01489 38008 ft 455 kts 281°
2026-05-05 12:14 53.55150 -0.11906 37996 ft 456 kts 281°
2026-05-05 12:15 53.56473 -0.22334 37993 ft 456 kts 281°
2026-05-05 12:15 53.57787 -0.32778 37993 ft 456 kts 281°
2026-05-05 12:16 53.59083 -0.43149 37993 ft 456 kts 281°
2026-05-05 12:16 53.60387 -0.53670 37995 ft 456 kts 281°
2026-05-05 12:17 53.61673 -0.64125 38003 ft 456 kts 281°
2026-05-05 12:17 53.62951 -0.74590 38003 ft 456 kts 281°
2026-05-05 12:18 53.64220 -0.85064 38006 ft 456 kts 281°
2026-05-05 12:18 53.65478 -0.95539 38009 ft 456 kts 280°
2026-05-05 12:19 53.66728 -1.06018 38013 ft 456 kts 280°
2026-05-05 12:19 53.67968 -1.16505 38010 ft 456 kts 280°
2026-05-05 12:20 53.69192 -1.26938 38016 ft 456 kts 280°
2026-05-05 12:20 53.70415 -1.37442 38017 ft 456 kts 280°
2026-05-05 12:21 53.71629 -1.47954 38020 ft 456 kts 280°
2026-05-05 12:21 53.72841 -1.58531 38023 ft 456 kts 280°
2026-05-05 12:22 53.74027 -1.68977 38020 ft 455 kts 280°
2026-05-05 12:22 53.75209 -1.79467 38021 ft 454 kts 280°
2026-05-05 12:23 53.76380 -1.89949 38028 ft 454 kts 280°
2026-05-05 12:23 53.77542 -2.00433 38029 ft 454 kts 279°
2026-05-05 12:24 53.78701 -2.10991 38029 ft 454 kts 280°
2026-05-05 12:24 53.79844 -2.21483 38032 ft 454 kts 279°
2026-05-05 12:25 53.80979 -2.31989 38033 ft 454 kts 279°
2026-05-05 12:25 53.82105 -2.42507 38034 ft 454 kts 279°
2026-05-05 12:26 53.83220 -2.53016 38031 ft 454 kts 279°
2026-05-05 12:26 53.84326 -2.63538 38031 ft 454 kts 279°
2026-05-05 12:27 53.85415 -2.73981 38034 ft 453 kts 279°
2026-05-05 12:27 53.86501 -2.84485 38047 ft 453 kts 279°
2026-05-05 12:28 53.87578 -2.95008 38047 ft 453 kts 279°
2026-05-05 12:28 53.88646 -3.05532 38047 ft 453 kts 279°
2026-05-05 12:29 53.89704 -3.16051 38049 ft 453 kts 279°